Location: Unspecified
(40.7945°N, 0.0000°E)
Time: 05:34:52
(UTC+00:00)

A-11 Canister half - Pass Details

Date: 26 January 2021
Orbit: 1516 x 1684 km, 47.2° (Epoch: 07 March)

Event Time Altitude Azimuth Distance (km) Brightness Sun altitude
Rises 18:07:32 0° 206° (SSW) 4,802 12.3 -11.0°
Reaches altitude 10° 18:10:55 10° 199° (SSW) 3,794 11.5 -11.7°
Maximum altitude 18:19:33 39° 135° (SE) 2,171 9.5 -13.2°
Enters shadow 18:25:47 18° 78° (ENE) 3,104 9.9 -14.4°
Drops below altitude 10° 18:27:58 10° 70° (ENE) 3,702 - -14.8°
Sets 18:31:13 0° 63° (ENE) 4,675 - -15.4°
